Location: �clusier
(49.9361°N, 2.7869°E)
Time: 21:28:18
(UTC+00:00)

Cosmos 2034 Rocket - Pass Details

Date: 16 June 2021
Orbit: 957 x 1001 km, 82.9° (Epoch: 01 August)

Event Time Altitude Azimuth Distance (km) Brightness Sun altitude
Rises 22:56:46 0° 352° (N) 3,678 8.9 -15.7°
Reaches altitude 10° 22:59:21 10° 357° (N) 2,721 7.7 -15.8°
Maximum altitude 23:05:29 58° 76° (ENE) 1,117 4.3 -16.0°
Enters shadow 23:09:29 22° 148° (SSE) 1,971 5.1 -16.1°
